[[{"header":{"parameterUnit":"m.s-1","parameterCategory":1,"la1":30.2991,"la2":30.254,"lo1":-89.0895,"lo2":-89.0444,"dy":0.0017,"dx":0.0017,"nx":28,"ny":28,"refTime":"2024-04-26T21:00:00:Z","depth":0,"parameterNumber":2,"parameterNumberName":"U-component_of_WINDS"},"data":[0,0,0,0,0,0,0,0,0,0,0,0,0,0,0,0,0,0,0,0,0,0,0,0,0,0,0,0,0,0,0,0,0,0,0,0,0,0,0,0,0,0,0,0,0,0,0,0,0,0,0,0,0,0,0,0,0,0,-7.1821,-7.1821,0,-7.1863,-7.1863,-7.1864,-7.1755,-7.1752,-7.1748,-7.1745,-7.1785,-7.1789,-7.1793,0,0,0,0,0,0,0,0,0,0,0,0,0,-7.1642,-7.1646,-7.1821,-7.1821,-7.1822,-7.1863,-7.1863,-7.1864,-7.1756,-7.1751,-7.1747,-7.1743,-7.1783,-7.1788,-7.1793,0,0,0,0,0,0,0,0,0,0,0,0,0,-7.1706,-7.1647,-7.1821,-7.1773,-7.1769,-7.1863,-7.1863,-7.1864,-7.1756,-7.1751,-7.1746,-7.1742,-7.1782,-7.1788,-7.1794,-7.1935,0,0,-7.1813,-7.1816,0,0,0,0,0,0,0,0,-7.1702,-7.1712,-7.1779,-7.1776,-7.1772,-7.1799,-7.1815,-7.1888,-7.1758,-7.1761,-7.1745,-7.1739,-7.1793,-7.1798,-7.1817,-7.1937,-7.1938,-7.1814,-7.1818,-7.182,-7.1822,0,0,0,0,0,0,0,-7.1698,-7.171,-7.1837,-7.178,-7.1776,-7.1748,-7.1751,-7.1828,-7.1805,-7.176,-7.1753,-7.1759,-7.179,-7.1811,-7.1817,-7.1939,-7.1814,-7.1819,-7.1823,-7.1826,-7.2174,-7.2179,0,0,0,0,0,0,-7.17,-7.1707,-7.1836,-7.1838,-7.1724,-7.1755,-7.1759,-7.1795,-7.1804,-7.18,-7.1764,-7.1754,-7.1803,-7.181,-7.1818,-7.1981,-7.182,-7.1826,-7.183,-7.2168,-7.2175,-7.2181,0,0,0,0,0,0,-7.1697,-7.1713,-7.1834,-7.1771,-7.1784,-7.1764,-7.1805,-7.1799,-7.1819,-7.1806,-7.1801,-7.179,-7.1799,-7.1809,-7.1906,-7.1981,-7.1829,-7.1835,-7.2162,-7.217,-7.2178,-7.2309,0,0,0,0,0,0,-7.1692,-7.1712,-7.1766,-7.1773,-7.1788,-7.1923,-7.181,-7.1803,-7.1831,-7.1819,-7.1829,-7.1826,-7.1796,-7.1897,-7.1913,-7.1987,-7.184,-7.2155,-7.2166,-7.2175,-7.2298,-7.2321,-7.2341,0,0,0,0,0,-7.1686,-7.1801,-7.177,-7.1786,-7.1855,-7.1927,-7.1936,-7.19,-7.1838,-7.1891,-7.1883,-7.1826,-7.1972,-7.1908,-7.1924,-7.2002,-7.215,-7.2163,-7.2175,-7.2289,-7.2317,-7.234,0,0,0,0,0,0,-7.1803,-7.1801,-7.1766,-7.1887,-7.1909,-7.1909,-7.1975,-7.1931,-7.1969,-7.1956,-7.1909,-7.1912,-7.2017,-7.202,-7.1949,-7.2137,-7.205,-7.2066,-7.2131,-7.2157,-7.2178,-7.2173,-7.1845,0,0,0,0,0,-7.1843,-7.1903,-7.1898,-7.2005,-7.2018,-7.1995,-7.2025,-7.1996,-7.2016,-7.2023,-7.2022,-7.2042,-7.2092,-7.2126,-7.2171,-7.23,-7.2298,-7.2361,-7.2382,-7.24,-7.2412,-7.2478,-7.2504,-7.2221,-7.2221,-7.2221,0,0,-7.1925,-7.1932,-7.1973,-7.2029,-7.2042,-7.2103,-7.2003,-7.2073,-7.2117,-7.2034,-7.2124,-7.2125,-7.2144,-7.2257,-7.2306,-7.2262,-7.2491,-7.2415,-7.2429,-7.2432,-7.2493,-7.252,-7.2544,-7.2229,-7.2228,-7.2227,0,0,-7.2106,-7.2119,-7.2208,-7.2224,-7.2245,-7.223,-7.2252,-7.226,-7.2256,-7.2348,-7.2285,-7.2338,-7.2426,-7.2441,-7.246,-7.2649,-7.2597,-7.2666,-7.2774,-7.2839,-7.2861,-7.288,-7.2944,-7.2968,-7.268,-7.268,-7.268,0,-7.2205,-7.2296,-7.2259,-7.2333,-7.2358,-7.2288,-7.2377,-7.2393,-7.2429,-7.2447,-7.2398,-7.2506,-7.2514,-7.2628,-7.2674,-7.2694,-7.2715,-7.2662,-7.2861,-7.288,-7.2898,-7.2958,-7.2982,-7.2688,-7.2687,-7.2686,-7.2685,0,-7.2415,-7.248,-7.2549,-7.2586,-7.262,-7.2701,-7.2674,-7.2713,-7.2682,-7.2671,-7.2764,-7.2772,-7.2816,-7.2842,-7.2812,-7.2952,-7.2923,-7.2869,-7.2779,-7.2933,-7.2988,-7.3011,-7.2699,-7.2696,-7.2694,-7.2692,0,0,-7.2667,-7.2683,-7.2709,-7.2724,-7.2743,-7.2791,-7.2869,-7.2914,-7.2946,-7.2974,-7.3036,-7.3113,-7.3062,-7.3084,-7.3056,-7.3113,-7.3258,-7.3051,-7.305,-7.3085,-7.3408,-7.3446,-7.3473,-7.3226,-7.323,-7.3233,-7.3405,0,-7.2842,-7.2976,-7.2945,-7.3076,-7.3133,-7.3069,-7.3136,-7.3154,-7.3147,-7.3194,-7.3185,-7.3239,-7.317,-7.3183,-7.3237,-7.3229,-7.3321,-7.3217,-7.3279,-7.3282,-7.3271,-7.3503,-7.3543,-7.3704,-7.3427,-7.3431,-7.3433,0,-7.3063,-7.31,-7.3237,-7.3246,-7.3269,-7.333,-7.3368,-7.3415,-7.3434,-7.3425,-7.3451,-7.3411,-7.3486,-7.34,-7.3501,-7.343,-7.3455,-7.3455,-7.346,-7.3461,-7.3363,-7.3505,-7.3755,-7.3778,-7.3468,-7.3465,-7.3463,0,-7.3228,-7.3312,-7.3404,-7.3419,-7.3433,-7.3477,-7.3485,-7.35,-7.3528,-7.3562,-7.358,-7.3622,-7.3644,-7.3677,-7.3649,-7.3589,-7.3754,-7.3665,-7.3745,-7.3745,-7.3778,-7.3775,-7.4031,-7.3802,-7.3802,-7.3802,-7.3801,0,-7.3424,-7.3509,-7.3477,-7.3534,-7.3627,-7.3592,-7.3684,-7.3685,-7.3699,-7.3752,-7.37,-7.3751,-7.3714,-7.3761,-7.3741,-7.3826,-7.3837,-7.3829,-7.3822,-7.3831,-7.3832,-7.3843,-7.3829,-7.3808,-7.3807,-7.3805,-7.3804,0,-7.3621,-7.3604,-7.3699,-7.3706,-7.3709,-7.3777,-7.3782,-7.3833,-7.3823,-7.3892,-7.3906,-7.389,-7.3943,-7.392,-7.3977,-7.3963,-7.4071,-7.4051,-7.4064,-7.4057,-7.4136,-7.4127,-7.4404,-7.4437,-7.4191,-7.4194,-7.4196,0,-7.3745,-7.3809,-7.3823,-7.3856,-7.3867,-7.3921,-7.395,-7.3919,-7.3951,-7.3978,-7.4026,-7.4076,-7.4113,-7.4201,-7.4193,-7.4236,-7.4214,-7.4308,-7.4219,-7.4226,-7.421,-7.4204,-7.4209,-7.4324,-7.4327,-7.4329,-7.4331,0,-7.3965,-7.3954,-7.3998,-7.4041,-7.4078,-7.4109,-7.4136,-7.4166,-7.4135,-7.4174,-7.4228,-7.4258,-7.4316,-7.4364,-7.4402,-7.4408,-7.4364,-7.436,-7.438,-7.4387,-7.4391,-7.4386,-7.4107,-7.4352,-7.435,-7.4349,-7.4348,-7.4347,-7.4126,-7.4179,-7.4197,-7.4248,-7.4266,-7.4292,-7.434,-7.4337,-7.4382,-7.4427,-7.4406,-7.4469,-7.4486,-7.4532,-7.4545,-7.4592,-7.4555,-7.4585,-7.4591,-7.4598,-7.4607,-7.4388,-7.46,-7.4599,-7.4599,-7.4598,-7.4598,0,-7.434,-7.4349,-7.4397,-7.4436,-7.4476,-7.4435,-7.4462,-7.4498,-7.4554,-7.4575,-7.4613,-7.4675,-7.4722,-7.4719,-7.4762,-7.4801,-7.4781,-7.4813,-7.4807,-7.4808,-7.464,-7.4616,-7.4827,-7.4827,-7.4827,-7.4827,-7.4827,-7.4827,-7.4456,-7.4542,-7.4533,-7.4628,-7.4635,-7.4697,-7.4716,-7.4739,-7.4755,-7.4827,-7.4867,-7.4865,-7.4876,-7.4919,-7.496,-7.4958,-7.4974,-7.5013,-7.5002,-7.4844,-7.4821,-7.4799,-7.4776,-7.5018,-7.5018,-7.5166,-7.5168,-7.5169]},{"header":{"parameterUnit":"m.s-1","parameterCategory":1,"la1":30.2991,"la2":30.254,"lo1":-89.0895,"lo2":-89.0444,"dy":0.0017,"dx":0.0017,"nx":28,"ny":28,"refTime":"2024-04-26T21:00:00:Z","depth":0,"parameterNumber":3,"parameterNumberName":"V-component_of_WINDS"},"data":[0,0,0,0,0,0,0,0,0,0,0,0,0,0,0,0,0,0,0,0,0,0,0,0,0,0,0,0,0,0,0,0,0,0,0,0,0,0,0,0,0,0,0,0,0,0,0,0,0,0,0,0,0,0,0,0,0,0,3.8848,3.8848,0,3.8865,3.8866,3.8866,3.8815,3.8813,3.8811,3.881,3.8825,3.8827,3.8828,0,0,0,0,0,0,0,0,0,0,0,0,0,3.877,3.8771,3.8848,3.8848,3.8849,3.8865,3.8866,3.8866,3.8815,3.8813,3.8811,3.8809,3.8824,3.8826,3.8829,0,0,0,0,0,0,0,0,0,0,0,0,0,3.8797,3.8772,3.8848,3.8825,3.8823,3.8865,3.8866,3.8866,3.8815,3.8813,3.8811,3.8808,3.8823,3.8826,3.8829,3.8893,0,0,3.8837,3.8839,0,0,0,0,0,0,0,0,3.8795,3.88,3.8828,3.8827,3.8825,3.8835,3.8843,3.8875,3.8816,3.8818,3.881,3.8807,3.883,3.8832,3.884,3.8893,3.8894,3.8838,3.8839,3.884,3.8841,0,0,0,0,0,0,0,3.8794,3.8799,3.8855,3.8829,3.8827,3.8814,3.8815,3.8849,3.8837,3.8818,3.8814,3.8817,3.8829,3.8838,3.884,3.8894,3.8837,3.884,3.8842,3.8843,3.9002,3.9004,0,0,0,0,0,0,3.8795,3.8798,3.8854,3.8855,3.8804,3.8817,3.8818,3.8834,3.8836,3.8835,3.8819,3.8815,3.8834,3.8837,3.8841,3.8916,3.884,3.8843,3.8845,3.8999,3.9002,3.9005,0,0,0,0,0,0,3.8794,3.8801,3.8854,3.8826,3.8831,3.8821,3.8839,3.8836,3.8845,3.8837,3.8835,3.8831,3.8833,3.8837,3.8881,3.8915,3.8844,3.8847,3.8996,3.9,3.9003,3.9066,0,0,0,0,0,0,3.8792,3.88,3.8825,3.8827,3.8833,3.8894,3.8841,3.8838,3.885,3.8845,3.8848,3.8846,3.8831,3.8877,3.8883,3.8918,3.8849,3.8993,3.8998,3.9002,3.9061,3.9072,3.9081,0,0,0,0,0,3.8789,3.8841,3.8826,3.8833,3.8863,3.8896,3.8899,3.8882,3.8853,3.8878,3.8873,3.8846,3.8911,3.8882,3.8889,3.8925,3.899,3.8996,3.9002,3.9056,3.9069,3.9081,0,0,0,0,0,0,3.8841,3.884,3.8824,3.8878,3.8888,3.8887,3.8917,3.8896,3.8913,3.8907,3.8884,3.8885,3.8933,3.8933,3.8901,3.8987,3.8946,3.8953,3.8985,3.8997,3.9007,3.9005,3.8851,0,0,0,0,0,3.886,3.8887,3.8884,3.8932,3.8938,3.8927,3.8941,3.8927,3.8935,3.8938,3.8937,3.8945,3.8968,3.8983,3.9003,3.9062,3.9061,3.909,3.91,3.9108,3.9114,3.9145,3.9158,3.9024,3.9024,3.9024,0,0,3.8897,3.89,3.8918,3.8943,3.8949,3.8977,3.8931,3.8962,3.8982,3.8943,3.8984,3.8984,3.8992,3.9043,3.9066,3.9045,3.9152,3.9115,3.9122,3.9124,3.9153,3.9165,3.9177,3.9028,3.9027,3.9026,0,0,3.8979,3.8984,3.9025,3.9032,3.9042,3.9035,3.9045,3.9048,3.9047,3.9088,3.9059,3.9083,3.9123,3.913,3.9138,3.9226,3.9202,3.9234,3.9285,3.9316,3.9326,3.9335,3.9366,3.9377,3.924,3.924,3.924,0,3.9023,3.9065,3.9048,3.9082,3.9094,3.9062,3.9103,3.911,3.9126,3.9135,3.9112,3.9161,3.9164,3.9217,3.9239,3.9247,3.9257,3.9232,3.9326,3.9335,3.9344,3.9373,3.9384,3.9244,3.9243,3.9243,3.9243,0,3.9119,3.9149,3.9181,3.9199,3.9214,3.9252,3.924,3.9258,3.9244,3.9239,3.9282,3.9285,3.9306,3.9318,3.9303,3.9369,3.9356,3.933,3.9288,3.936,3.9387,3.9398,3.9249,3.9248,3.9247,3.9246,0,0,3.9232,3.9242,3.9254,3.9262,3.9272,3.9294,3.933,3.9352,3.9368,3.938,3.941,3.9445,3.9422,3.9432,3.9418,3.9445,3.9514,3.9416,3.9416,3.9433,3.9587,3.9605,3.9618,3.9499,3.9502,3.9503,3.9586,0,3.9312,3.9375,3.9362,3.9424,3.9451,3.9422,3.9454,3.9463,3.9461,3.9483,3.9479,3.9505,3.9472,3.9478,3.9504,3.9501,3.9545,3.9495,3.9525,3.9527,3.9523,3.9632,3.9652,3.9729,3.9596,3.9598,3.9599,0,3.9413,3.9432,3.9496,3.9503,3.9514,3.9543,3.9562,3.9585,3.9595,3.9591,3.9604,3.9586,3.9621,3.9581,3.963,3.9596,3.9608,3.9609,3.9611,3.9612,3.9566,3.9635,3.9754,3.9765,3.9616,3.9614,3.9613,0,3.9488,3.9529,3.9573,3.9581,3.959,3.9611,3.9616,3.9624,3.9639,3.9656,3.9665,3.9685,3.9696,3.9712,3.97,3.9672,3.9751,3.9709,3.9748,3.9748,3.9764,3.9763,3.9885,3.9775,3.9775,3.9774,3.9774,0,3.9578,3.9618,3.9607,3.9634,3.9679,3.9664,3.9709,3.971,3.9718,3.9744,3.9721,3.9746,3.9729,3.9753,3.9744,3.9786,3.9791,3.9788,3.9785,3.9789,3.979,3.9796,3.9789,3.9778,3.9777,3.9776,3.9776,0,3.9667,3.9662,3.9708,3.9714,3.9717,3.975,3.9754,3.9779,3.9776,3.981,3.9817,3.9811,3.9838,3.9829,3.9857,3.9851,3.9904,3.9894,3.9901,3.9898,3.9937,3.9933,4.0066,4.0082,3.9962,3.9964,3.9965,0,3.9724,3.9755,3.9766,3.9782,3.9789,3.9817,3.9832,3.9819,3.9835,3.9851,3.9874,3.99,3.9919,3.9963,3.9961,3.9983,3.9973,4.0018,3.9976,3.998,3.9972,3.997,3.9973,4.0026,4.0027,4.0028,4.0029,0,3.9826,3.9822,3.9845,3.9868,3.9888,3.9905,3.9919,3.9934,3.9923,3.9943,3.9971,3.9986,4.0016,4.0041,4.0062,4.0065,4.0045,4.0043,4.0053,4.0057,4.0059,4.0058,3.9922,4.004,4.0038,4.0038,4.0037,4.0037,3.99,3.9926,3.9938,3.9965,3.9976,3.9991,4.0015,4.0016,4.004,4.0064,4.0055,4.0088,4.0098,4.0123,4.0131,4.0155,4.0137,4.0152,4.0155,4.0159,4.0164,4.0057,4.0159,4.0159,4.0158,4.0158,4.0158,0,3.9999,4.0006,4.0032,4.0054,4.0076,4.0058,4.0074,4.0092,4.0122,4.0134,4.0154,4.0187,4.0212,4.0213,4.0236,4.0256,4.0247,4.0262,4.026,4.0261,4.0178,4.0167,4.0269,4.0269,4.0269,4.0269,4.0269,4.0269,4.0053,4.0097,4.0095,4.0145,4.0151,4.0184,4.0194,4.0208,4.0218,4.0256,4.0277,4.0279,4.0286,4.031,4.0332,4.0332,4.0341,4.036,4.0356,4.0278,4.0267,4.0256,4.0245,4.0362,4.0362,4.0436,4.0437,4.0437]}]]